TimeCET,TemperatureF,Dew PointF,Humidity,Sea Level PressureIn,VisibilityMPH,Wind Direction,Wind SpeedMPH,Gust SpeedMPH,PrecipitationIn,Events,Conditions,WindDirDegrees,DateUTC
12:00 AM,44.6,37.4,76,30.30,6.2,West,4.6,-,N/A,,Overcast,260,2012-12-27 23:00:00
12:30 AM,44.6,37.4,76,30.30,6.2,West,3.5,-,N/A,,Overcast,270,2012-12-27 23:30:00
1:00 AM,42.8,37.4,81,30.30,6.2,West,5.8,-,N/A,,Light Drizzle,260,2012-12-28 00:00:00
1:30 AM,44.6,37.4,76,30.33,6.2,West,6.9,-,N/A,,Overcast,270,2012-12-28 00:30:00
2:00 AM,44.6,37.4,76,30.33,6.2,WNW,6.9,-,N/A,,Mostly Cloudy,300,2012-12-28 01:00:00
2:30 AM,44.6,37.4,76,30.36,6.2,WNW,8.1,-,N/A,,Mostly Cloudy,300,2012-12-28 01:30:00
3:00 AM,42.8,39.2,87,30.36,5.6,West,6.9,-,N/A,Rain,Rain,270,2012-12-28 02:00:00
3:30 AM,44.6,39.2,81,30.39,6.2,North,5.8,-,N/A,,Overcast,360,2012-12-28 02:30:00
4:00 AM,42.8,37.4,81,30.39,6.2,WNW,1.2,-,N/A,,Overcast,300,2012-12-28 03:00:00
4:30 AM,42.8,39.2,87,30.39,6.2,South,2.3,-,N/A,,Overcast,180,2012-12-28 03:30:00
5:00 AM,42.8,39.2,87,30.39,6.2,Variable,3.5,-,N/A,,Mostly Cloudy,0,2012-12-28 04:00:00
5:30 AM,41.0,39.2,93,30.39,6.2,Variable,2.3,-,N/A,Rain,Rain,0,2012-12-28 04:30:00
6:00 AM,41.0,39.2,93,30.39,6.2,East,6.9,-,N/A,Rain,Light Rain,90,2012-12-28 05:00:00
6:30 AM,41.0,39.2,93,30.42,6.2,ENE,5.8,-,N/A,,Mostly Cloudy,60,2012-12-28 05:30:00
7:00 AM,41.0,39.2,93,30.42,6.2,East,6.9,-,N/A,,Mostly Cloudy,100,2012-12-28 06:00:00
7:30 AM,41.0,39.2,93,30.42,6.2,East,4.6,-,N/A,,Mostly Cloudy,100,2012-12-28 06:30:00
8:00 AM,39.2,37.4,93,30.42,6.2,East,5.8,-,N/A,,Mostly Cloudy,100,2012-12-28 07:00:00
8:30 AM,39.2,37.4,93,30.42,6.2,East,4.6,-,N/A,,Scattered Clouds,90,2012-12-28 07:30:00
9:00 AM,41.0,39.2,93,30.42,6.2,East,5.8,-,N/A,,Scattered Clouds,90,2012-12-28 08:00:00
9:30 AM,41.0,39.2,93,30.45,6.2,Variable,2.3,-,N/A,,Mostly Cloudy,0,2012-12-28 08:30:00
10:00 AM,44.6,41.0,87,30.45,-9999.0,Variable,2.3,-,N/A,,Clear,0,2012-12-28 09:00:00
10:30 AM,44.6,39.2,81,30.45,6.2,West,3.5,-,N/A,,Mostly Cloudy,260,2012-12-28 09:30:00
11:00 AM,48.2,39.2,71,30.45,6.2,Calm,Calm,-,N/A,,Scattered Clouds,0,2012-12-28 10:00:00
11:30 AM,48.2,37.4,66,30.42,6.2,North,6.9,-,N/A,,Scattered Clouds,10,2012-12-28 10:30:00
12:00 PM,48.2,35.6,62,30.42,6.2,NNE,10.4,-,N/A,,Mostly Cloudy,20,2012-12-28 11:00:00
12:30 PM,50.0,35.6,58,30.42,6.2,NNE,6.9,-,N/A,,Mostly Cloudy,20,2012-12-28 11:30:00
1:00 PM,50.0,37.4,62,30.42,6.2,NNE,6.9,-,N/A,,Scattered Clouds,30,2012-12-28 12:00:00
1:30 PM,48.2,37.4,66,30.42,6.2,NNE,9.2,-,N/A,,Mostly Cloudy,30,2012-12-28 12:30:00
2:00 PM,48.2,39.2,71,30.39,6.2,NNE,8.1,-,N/A,,Mostly Cloudy,20,2012-12-28 13:00:00
2:30 PM,48.2,39.2,71,30.39,6.2,North,6.9,-,N/A,,Mostly Cloudy,10,2012-12-28 13:30:00
3:00 PM,48.2,37.4,66,30.39,6.2,North,6.9,-,N/A,,Mostly Cloudy,10,2012-12-28 14:00:00
3:30 PM,48.2,35.6,62,30.39,6.2,NE,4.6,-,N/A,,Scattered Clouds,50,2012-12-28 14:30:00
4:00 PM,48.2,37.4,66,30.39,6.2,NNE,6.9,-,N/A,,Scattered Clouds,20,2012-12-28 15:00:00
4:30 PM,46.4,37.4,71,30.39,6.2,NE,5.8,-,N/A,,Scattered Clouds,40,2012-12-28 15:30:00
5:00 PM,44.6,37.4,76,30.39,6.2,ENE,4.6,-,N/A,,Partly Cloudy,60,2012-12-28 16:00:00
5:30 PM,44.6,39.2,81,30.39,6.2,NE,4.6,-,N/A,,Partly Cloudy,50,2012-12-28 16:30:00
6:00 PM,41.0,35.6,81,30.39,6.2,Variable,3.5,-,N/A,,Unknown,0,2012-12-28 17:00:00
6:30 PM,41.0,37.4,87,30.39,6.2,Variable,3.5,-,N/A,,Unknown,0,2012-12-28 17:30:00
7:00 PM,39.2,35.6,87,30.39,6.2,East,2.3,-,N/A,,Unknown,100,2012-12-28 18:00:00
7:30 PM,39.2,35.6,87,30.39,6.2,Variable,1.2,-,N/A,,Unknown,0,2012-12-28 18:30:00
8:00 PM,37.4,33.8,87,30.39,6.2,Variable,3.5,-,N/A,,Unknown,0,2012-12-28 19:00:00
8:30 PM,35.6,33.8,93,30.39,6.2,East,3.5,-,N/A,,Unknown,90,2012-12-28 19:30:00
9:00 PM,33.8,32.0,93,30.39,6.2,ENE,5.8,-,N/A,,Unknown,70,2012-12-28 20:00:00
9:30 PM,33.8,33.8,100,30.36,5.6,ESE,9.2,-,N/A,,Unknown,120,2012-12-28 20:30:00
10:00 PM,35.6,33.8,93,30.36,6.2,ENE,5.8,-,N/A,,Unknown,70,2012-12-28 21:00:00
10:30 PM,37.4,35.6,93,30.36,6.2,East,9.2,-,N/A,,Unknown,80,2012-12-28 21:30:00
11:00 PM,33.8,32.0,93,30.36,6.2,East,8.1,-,N/A,,Unknown,100,2012-12-28 22:00:00
11:30 PM,35.6,33.8,93,30.36,6.2,East,6.9,-,N/A,,Unknown,80,2012-12-28 22:30:00